Tracking 25693 objects as of 1-Jul-2022
HD Live streaming from Space Station
objects crossing your sky now

STARLINK-2283

Track STARLINK-2283 now!
10-day predictions
STARLINK-2283 is classified as:


NORAD ID: 48014
Int'l Code: 2021-024AP
Perigee: 553.2 km
Apogee: 555.5 km
Inclination: 53.1 °
Period: 95.6 minutes
Semi major axis: 6925 km
RCS: Unknown
Launch date: March 24, 2021
Source: United States (US)
Launch site: AIR FORCE EASTERN TEST RANGE (AFETR)
aabbcc
Your satellite tracking list
Your tracking list is empty




NASA's NSSDC Master Catalog

Two Line Element Set (TLE):
1 48014U 21024AP  22182.30986764  .00000294  00000-0  38670-4 0  9997
2 48014  53.0540 195.4051 0001691  52.0280 308.0861 15.06392453 72457
Source of the keplerian elements: AFSPC